STARLINK-1942, 46794

Orbit data source: Space-Track

STARLINK-1942, 46794 is a payload satellite owned by SpaceX/Seattle (US) in LEO that was launched on Sat, 24 Oct 2020 UTC via an FALCON 9 launch vehicle from the Air Force Eastern Test Range (AFETR). Payloads include a variety of satellites, spacecraft, and rockets equipped with specific instruments for various scientific and technological missions. These include communications satellites like Starlink; space stations such as the ISS; scientific satellites like the Hubble; Earth observation satellites from companies like Planet Labs, Umbra, and HawkEye 360; GPS; miniature CubeSats for education and research; and military/defense satellites.

Loading next visibility...
STARLINK-1942 details
Identifier
46794, 2020-074BH
Orbit
LEO
Last TLE update8 hours ago
Origin
Flag of USSpaceX/Seattle (US)
ManufacturerSpaceX/Seattle
MissionOperational Commercial Communications
Bus & MotorSTARLINK, Unknown motor
Mass260 kg wet, ~248 kg dry
Launch date (UTC)
2020-10-24 (4 years ago)
Launch vehicle
FALCON 9
Launch site
Air Force Eastern Test Range (AFETR)
Object type
Payload
Rocket body
Debris
Shape & HBRBox + 1 Pan, 8.86 m
Radar Cross Section13.562 m², Large (>1 m²)

Expand to show TLE details & history

TLE from 8 hours ago
0 STARLINK-1942
1 46794U 20074BH  24348.82658603  .00001275  00000-0  10448-3 0  9997
2 46794  53.0529 185.6183 0001773  89.1981 270.9211 15.06399093228405
Epoch: 2024-12-13T19:50Z
Definitive object data (Epoch: 2024-12-13T19:50:17.032Z)
Latitude-0.00006°
Longitude165.0603°
Altitude548.074 km
Speed7.589 km/s
True Right ascension12h 22m 28s
True Declination0° 00' 00"
Sunlit
Object was in daylight at TLE epoch
Visualization TLE readout
Latitude-34.28462°
Longitude132.94697°
Altitude558.9 km
Speed7.581 km/s
Apparent Right ascension12h 01m 17s
Apparent Declination-40° 37' 05"
Sunlit
Object is in daylight
Visualization observer readout
Local Sidereal Time02:08:53
Azimuth102.075° ESE
Elevation-65.784°
Doppler factor1
Orbital elements
Apogee altitude548.713 km
Perigee altitude546.257 km
Semi-major axis6,925.622 km
Eccentricity0.0001773
Inclination53.0529°
RAAN185.6183°
Arg. of periapsis89.1981°
True anomaly270.90079°
Mean anomaly270.9211°
Eccentric anomaly270.91094°
Mean motion3.76578 °/min
BSTAR0.00010448
Orbital period95.6 mins
Loading maneuver chart data...

STARLINK-1942 Visibility forecast

Observer location: undefined°, undefined

Span
Click to sort rows by Start time (UTC) header in descending order
Start Az.
Max El. time (UTC)
Max El. Az.
Max El.
End time (UTC)
End Az.
6 mins2024-12-14 15:06:08.282Z180.218° SSW2024-12-14 15:09:08.282Z119.395° SE23.887°2024-12-14 15:12:08.282Z72.595° E
5 mins2024-12-14 16:46:08.282Z268.84° W2024-12-14 16:48:08.282Z329.323° NNW34.791°2024-12-14 16:51:08.282Z35.358° NE
5 mins2024-12-14 21:48:08.282Z344.628° N2024-12-14 21:50:08.282Z36.929° NE28.108°2024-12-14 21:53:08.282Z91.195° ESE
6 mins2024-12-14 23:27:08.282Z286.065° WNW2024-12-14 23:29:08.282Z240.383° WSW32.648°2024-12-14 23:33:08.282Z157.373° SSE
|